[[{"header":{"parameterUnit":"m.s-1","parameterCategory":1,"la1":30.2991,"la2":30.254,"lo1":-89.0895,"lo2":-89.0444,"dy":0.0017,"dx":0.0017,"nx":28,"ny":28,"refTime":"2024-02-27T03:00:00:Z","depth":0,"parameterNumber":2,"parameterNumberName":"U-component_of_WINDS"},"data":[0,0,0,0,0,0,0,0,0,0,0,0,0,0,0,0,0,0,0,0,0,0,0,0,0,0,0,0,0,0,0,0,0,0,0,0,0,0,0,0,0,0,0,0,0,0,0,0,0,0,0,0,0,0,0,0,0,0,1.0401,1.04,0,1.0387,1.0386,1.0386,1.0368,1.0368,1.0368,1.0368,1.0352,1.0352,1.0352,0,0,0,0,0,0,0,0,0,0,0,0,0,1.0414,1.0413,1.0401,1.04,1.04,1.0387,1.0386,1.0386,1.0368,1.0368,1.0368,1.0367,1.0352,1.0352,1.0352,0,0,0,0,0,0,0,0,0,0,0,0,0,1.0405,1.0413,1.0401,1.039,1.0389,1.0387,1.0386,1.0386,1.0369,1.0368,1.0368,1.0367,1.0353,1.0352,1.0352,1.0359,0,0,1.0351,1.0351,0,0,0,0,0,0,0,0,1.0405,1.0404,1.0392,1.0391,1.0389,1.0379,1.0385,1.0377,1.0369,1.0376,1.0368,1.0367,1.0362,1.0361,1.0359,1.0359,1.0358,1.0351,1.0351,1.0351,1.0351,0,0,0,0,0,0,0,1.0406,1.0405,1.0395,1.0391,1.039,1.0386,1.0384,1.0384,1.0371,1.0375,1.0374,1.0373,1.0361,1.0359,1.0358,1.0358,1.0351,1.0351,1.0351,1.0351,1.0366,1.0367,0,0,0,0,0,0,1.0408,1.0405,1.0396,1.0395,1.0396,1.0386,1.0384,1.0383,1.0371,1.0369,1.0373,1.0372,1.036,1.0359,1.0358,1.0367,1.0351,1.0351,1.0351,1.0366,1.0366,1.0367,0,0,0,0,0,0,1.0408,1.0407,1.0396,1.04,1.0398,1.0386,1.0385,1.0383,1.0381,1.037,1.0367,1.0374,1.0359,1.0358,1.036,1.0367,1.0351,1.0351,1.0365,1.0366,1.0367,1.0386,0,0,0,0,0,0,1.0409,1.0407,1.0409,1.04,1.0398,1.0398,1.0385,1.0383,1.0381,1.0379,1.0369,1.0367,1.0359,1.036,1.036,1.0366,1.0351,1.0364,1.0365,1.0366,1.0385,1.0387,1.0389,0,0,0,0,0,1.0409,1.0415,1.041,1.0409,1.04,1.0398,1.0397,1.0387,1.0381,1.0384,1.0377,1.0368,1.0366,1.0361,1.036,1.0366,1.0364,1.0365,1.0366,1.0383,1.0387,1.0389,0,0,0,0,0,0,1.0424,1.0413,1.0407,1.041,1.0405,1.0395,1.0398,1.0391,1.0388,1.0386,1.0374,1.0372,1.0376,1.0371,1.0365,1.0374,1.0364,1.0365,1.0377,1.038,1.0383,1.0384,1.035,0,0,0,0,0,1.0428,1.0427,1.0418,1.0421,1.0419,1.0409,1.0408,1.0401,1.0396,1.0394,1.0387,1.0382,1.0381,1.038,1.0378,1.0384,1.0383,1.0388,1.0391,1.0393,1.0394,1.0399,1.0402,1.0371,1.0371,1.0371,0,0,1.0435,1.0429,1.0429,1.0424,1.0419,1.042,1.0407,1.0408,1.0408,1.0394,1.0396,1.0391,1.0385,1.039,1.0391,1.0386,1.0403,1.0394,1.0396,1.0396,1.0401,1.0404,1.0407,1.0372,1.0371,1.0371,0,0,1.0449,1.0444,1.0447,1.0444,1.0438,1.0432,1.0433,1.0425,1.0422,1.0424,1.0414,1.0414,1.0411,1.0409,1.0407,1.0423,1.0416,1.0423,1.0436,1.0441,1.0444,1.0446,1.0454,1.0456,1.0424,1.0424,1.0424,0,1.0459,1.0459,1.0449,1.0451,1.045,1.0438,1.0442,1.044,1.0433,1.0433,1.0427,1.0426,1.0421,1.0426,1.043,1.0429,1.0431,1.0424,1.0444,1.0446,1.0448,1.0456,1.0458,1.0425,1.0425,1.0425,1.0425,0,1.0472,1.0473,1.0476,1.0472,1.0471,1.0474,1.0466,1.0466,1.0461,1.0456,1.0459,1.0453,1.0451,1.0452,1.0445,1.0457,1.0454,1.0446,1.0436,1.0453,1.0459,1.0462,1.0427,1.0426,1.0426,1.0426,0,0,1.0493,1.0486,1.0487,1.0487,1.0481,1.0482,1.0485,1.0484,1.0486,1.0482,1.0486,1.0486,1.048,1.0478,1.0471,1.0476,1.0492,1.0468,1.0468,1.0474,1.0507,1.0514,1.0517,1.0487,1.0488,1.0488,1.0508,0,1.0506,1.0512,1.0505,1.0512,1.0514,1.0504,1.0508,1.0505,1.0502,1.0503,1.0499,1.05,1.049,1.049,1.0494,1.0489,1.0499,1.0488,1.0491,1.0492,1.0494,1.052,1.0526,1.0546,1.0511,1.0511,1.0511,0,1.0522,1.0522,1.0529,1.0527,1.0527,1.053,1.053,1.0531,1.0529,1.0526,1.0526,1.0519,1.0524,1.0514,1.0521,1.0513,1.0515,1.0513,1.0514,1.0514,1.0503,1.0522,1.0551,1.0555,1.0515,1.0515,1.0515,0,1.0538,1.0539,1.0545,1.0545,1.0541,1.0544,1.0542,1.054,1.0541,1.0541,1.0542,1.0543,1.0543,1.0544,1.0538,1.0531,1.0547,1.0536,1.0546,1.0546,1.0549,1.0549,1.058,1.0549,1.0549,1.0549,1.0549,0,1.0554,1.0559,1.0553,1.0556,1.0563,1.0556,1.0563,1.0561,1.056,1.0564,1.0555,1.0559,1.0551,1.0554,1.0549,1.0557,1.0557,1.0556,1.0555,1.0557,1.0557,1.0558,1.0557,1.0549,1.0549,1.0549,1.0549,0,1.0573,1.0568,1.0574,1.0571,1.0571,1.0576,1.0574,1.0578,1.0575,1.058,1.0581,1.0576,1.058,1.0574,1.0577,1.0574,1.0586,1.0582,1.0586,1.0586,1.0597,1.0596,1.063,1.0635,1.0599,1.06,1.06,0,1.0583,1.0588,1.0586,1.0589,1.0588,1.0592,1.0594,1.0588,1.059,1.059,1.0595,1.0598,1.0601,1.0608,1.0605,1.0607,1.0604,1.0616,1.0605,1.0608,1.0607,1.0607,1.0608,1.0618,1.0619,1.0619,1.0619,0,1.0603,1.0602,1.0604,1.0607,1.061,1.0612,1.0613,1.0616,1.061,1.0613,1.0618,1.062,1.0625,1.0629,1.0632,1.0631,1.0625,1.0623,1.0626,1.0629,1.0632,1.0632,1.0594,1.0622,1.0622,1.0622,1.0622,1.0622,1.0618,1.0623,1.0624,1.0628,1.0629,1.0632,1.0636,1.0635,1.0639,1.0643,1.0639,1.0646,1.0647,1.065,1.065,1.0656,1.0651,1.0654,1.0656,1.0657,1.0659,1.0631,1.0656,1.0656,1.0656,1.0656,1.0656,0,1.0639,1.064,1.0644,1.0648,1.0652,1.0647,1.0649,1.0653,1.0659,1.0661,1.0664,1.0671,1.0676,1.0675,1.068,1.0685,1.0683,1.0687,1.0686,1.0687,1.0662,1.066,1.0689,1.0689,1.0689,1.0689,1.0689,1.0689,1.065,1.0659,1.0658,1.0668,1.0669,1.0676,1.0678,1.0681,1.0683,1.0691,1.0696,1.0696,1.0697,1.0703,1.0708,1.0707,1.071,1.0715,1.0714,1.0691,1.0688,1.0685,1.0683,1.0716,1.0716,1.0738,1.0739,1.0739]},{"header":{"parameterUnit":"m.s-1","parameterCategory":1,"la1":30.2991,"la2":30.254,"lo1":-89.0895,"lo2":-89.0444,"dy":0.0017,"dx":0.0017,"nx":28,"ny":28,"refTime":"2024-02-27T03:00:00:Z","depth":0,"parameterNumber":3,"parameterNumberName":"V-component_of_WINDS"},"data":[0,0,0,0,0,0,0,0,0,0,0,0,0,0,0,0,0,0,0,0,0,0,0,0,0,0,0,0,0,0,0,0,0,0,0,0,0,0,0,0,0,0,0,0,0,0,0,0,0,0,0,0,0,0,0,0,0,0,-3.9117,-3.9111,0,-3.8536,-3.8529,-3.8522,-3.842,-3.8425,-3.843,-3.8434,-3.7815,-3.7794,-3.7774,0,0,0,0,0,0,0,0,0,0,0,0,0,-4.0122,-4.0104,-3.9118,-3.9111,-3.9103,-3.8537,-3.8529,-3.8521,-3.8419,-3.8425,-3.8431,-3.8437,-3.7822,-3.7797,-3.7772,0,0,0,0,0,0,0,0,0,0,0,0,0,-3.9627,-4.0099,-3.9119,-3.8985,-3.8967,-3.8538,-3.8528,-3.8518,-3.8418,-3.8425,-3.8433,-3.844,-3.783,-3.7799,-3.7768,-3.7425,0,0,-3.7671,-3.7658,0,0,0,0,0,0,0,0,-3.9655,-3.959,-3.9012,-3.8994,-3.8973,-3.8559,-3.8655,-3.8151,-3.8416,-3.8626,-3.8435,-3.8443,-3.8055,-3.8005,-3.7879,-3.7396,-3.7369,-3.7669,-3.7649,-3.7636,-3.7627,0,0,0,0,0,0,0,-3.969,-3.9615,-3.8887,-3.9004,-3.898,-3.8948,-3.8885,-3.8559,-3.8305,-3.8608,-3.8599,-3.8533,-3.8045,-3.791,-3.7864,-3.736,-3.767,-3.7641,-3.7622,-3.761,-3.6567,-3.6559,0,0,0,0,0,0,-3.9751,-3.9644,-3.8905,-3.8869,-3.934,-3.8924,-3.8854,-3.8683,-3.8308,-3.8259,-3.8527,-3.853,-3.796,-3.7901,-3.7841,-3.7415,-3.7636,-3.7606,-3.7588,-3.6576,-3.6565,-3.6556,0,0,0,0,0,0,-3.9773,-3.9686,-3.8929,-3.9254,-3.9156,-3.8899,-3.8708,-3.8668,-3.8533,-3.8248,-3.82,-3.8437,-3.7964,-3.7886,-3.7531,-3.7392,-3.7592,-3.7563,-3.6586,-3.6572,-3.656,-3.656,0,0,0,0,0,0,-3.9803,-3.9695,-3.9566,-3.9252,-3.9139,-3.8634,-3.8699,-3.8651,-3.8481,-3.848,-3.815,-3.8102,-3.7963,-3.7579,-3.75,-3.7352,-3.7539,-3.6597,-3.658,-3.6564,-3.6571,-3.6548,-3.6529,0,0,0,0,0,-3.9839,-3.9583,-3.956,-3.9471,-3.8973,-3.8626,-3.856,-3.8412,-3.8471,-3.8336,-3.8154,-3.8113,-3.7422,-3.7544,-3.7453,-3.7294,-3.6605,-3.6585,-3.6566,-3.658,-3.6553,-3.6529,0,0,0,0,0,0,-3.9877,-3.9539,-3.951,-3.9147,-3.8917,-3.861,-3.8435,-3.8387,-3.813,-3.8138,-3.7959,-3.7885,-3.754,-3.7381,-3.7523,-3.6943,-3.7016,-3.6978,-3.7059,-3.703,-3.701,-3.7052,-3.7512,0,0,0,0,0,-3.9846,-3.9599,-3.9314,-3.9021,-3.8908,-3.8693,-3.8535,-3.8443,-3.8194,-3.8093,-3.7885,-3.7639,-3.7367,-3.719,-3.6923,-3.655,-3.6474,-3.6395,-3.6375,-3.6359,-3.6326,-3.6116,-3.6078,-3.6491,-3.6491,-3.6492,0,0,-3.9772,-3.9558,-3.9411,-3.9023,-3.8834,-3.8577,-3.861,-3.8335,-3.8141,-3.8049,-3.7703,-3.7543,-3.7256,-3.6892,-3.672,-3.6748,-3.6197,-3.6334,-3.6324,-3.6298,-3.6092,-3.6053,-3.6019,-3.6478,-3.648,-3.6482,0,0,-3.9509,-3.9324,-3.906,-3.8873,-3.859,-3.8449,-3.8387,-3.8087,-3.7979,-3.7632,-3.7559,-3.7322,-3.6856,-3.6656,-3.6493,-3.6162,-3.6114,-3.608,-3.5968,-3.5766,-3.5733,-3.5703,-3.5583,-3.5542,-3.6049,-3.6049,-3.6049,0,-3.9451,-3.9068,-3.8928,-3.8658,-3.8489,-3.8405,-3.8133,-3.7956,-3.7597,-3.7479,-3.7519,-3.6937,-3.6737,-3.6325,-3.6246,-3.6117,-3.6036,-3.6114,-3.5751,-3.5719,-3.5689,-3.5572,-3.5528,-3.6047,-3.6047,-3.6047,-3.6047,0,-3.9011,-3.8747,-3.8567,-3.8233,-3.8043,-3.7774,-3.7588,-3.7412,-3.7337,-3.7191,-3.6838,-3.6598,-3.6283,-3.6179,-3.6099,-3.5754,-3.5781,-3.5789,-3.5858,-3.565,-3.5537,-3.5491,-3.6043,-3.6044,-3.6045,-3.6045,0,0,-3.8748,-3.8348,-3.8283,-3.8132,-3.7817,-3.7606,-3.7333,-3.7033,-3.6885,-3.6641,-3.6404,-3.6017,-3.6024,-3.5839,-3.5737,-3.556,-3.5312,-3.5588,-3.5579,-3.5543,-3.4916,-3.491,-3.4861,-3.5282,-3.5273,-3.5266,-3.4939,0,-3.8445,-3.7963,-3.7831,-3.7419,-3.7172,-3.7092,-3.6853,-3.6631,-3.6489,-3.6253,-3.6092,-3.582,-3.5851,-3.5739,-3.5562,-3.5381,-3.5183,-3.5403,-3.5053,-3.5042,-3.5124,-3.4802,-3.4793,-3.4497,-3.4895,-3.4887,-3.4881,0,-3.8025,-3.7785,-3.7352,-3.7073,-3.6964,-3.6753,-3.6469,-3.6247,-3.5993,-3.5901,-3.5701,-3.5616,-3.5323,-3.5415,-3.5006,-3.5159,-3.5008,-3.4898,-3.4883,-3.484,-3.4946,-3.4747,-3.4399,-3.4353,-3.4811,-3.4816,-3.4821,0,-3.7875,-3.7441,-3.7127,-3.7,-3.6667,-3.6521,-3.6374,-3.6129,-3.5958,-3.5708,-3.5595,-3.5312,-3.5155,-3.4936,-3.4775,-3.4857,-3.438,-3.4458,-3.429,-3.4294,-3.4188,-3.4196,-3.3807,-3.4099,-3.41,-3.4101,-3.4102,0,-3.7547,-3.7284,-3.7056,-3.6861,-3.6564,-3.6415,-3.6122,-3.5971,-3.5755,-3.5526,-3.5437,-3.5223,-3.5027,-3.4785,-3.4658,-3.4338,-3.4268,-3.4182,-3.415,-3.4187,-3.4198,-3.4082,-3.4096,-3.4089,-3.4091,-3.4094,-3.4096,0,-3.7326,-3.7163,-3.6814,-3.6532,-3.6455,-3.6248,-3.6003,-3.5808,-3.5668,-3.5379,-3.5302,-3.5076,-3.4787,-3.4609,-3.4239,-3.4154,-3.3801,-3.3779,-3.3889,-3.3874,-3.3716,-3.3732,-3.3235,-3.3161,-3.3507,-3.3504,-3.3502,0,-3.7126,-3.6923,-3.6623,-3.6468,-3.6323,-3.6072,-3.5901,-3.5746,-3.557,-3.527,-3.5111,-3.4819,-3.4577,-3.4118,-3.3917,-3.3634,-3.3601,-3.3448,-3.3557,-3.3602,-3.3595,-3.3608,-3.3586,-3.3427,-3.3424,-3.3422,-3.342,0,-3.6787,-3.6719,-3.6479,-3.6212,-3.6012,-3.5792,-3.5571,-3.5447,-3.5255,-3.506,-3.477,-3.4583,-3.4212,-3.3921,-3.3623,-3.3464,-3.3407,-3.3389,-3.3334,-3.3367,-3.3439,-3.3395,-3.3835,-3.3398,-3.3401,-3.3402,-3.3403,-3.3404,-3.6566,-3.6384,-3.6146,-3.5882,-3.5703,-3.5501,-3.5307,-3.5145,-3.4902,-3.4593,-3.4516,-3.421,-3.3962,-3.3558,-3.3394,-3.3149,-3.317,-3.3092,-3.3071,-3.3053,-3.3049,-3.3484,-3.3094,-3.3094,-3.3095,-3.3095,-3.3095,0,-3.6221,-3.6067,-3.5827,-3.5527,-3.5319,-3.5296,-3.5052,-3.4877,-3.4612,-3.4391,-3.4158,-3.3823,-3.3543,-3.3324,-3.3035,-3.2881,-3.2847,-3.2809,-3.2816,-3.278,-3.3048,-3.3123,-3.2841,-3.2842,-3.2842,-3.2842,-3.2842,-3.2842,-3.6017,-3.5707,-3.5611,-3.5211,-3.5055,-3.4762,-3.4625,-3.4436,-3.4259,-3.3893,-3.3664,-3.3527,-3.3304,-3.3,-3.274,-3.2682,-3.2578,-3.2544,-3.2481,-3.2734,-3.2761,-3.2787,-3.2857,-3.2524,-3.2524,-3.2233,-3.223,-3.2228]}]]